Weather History for KRSN - December, 2012

Change the Weather History Date:

Thursday, December 13, 2012

  Actual Average Record
Temperature  
Mean Temperature 43 °F -  
Max Temperature 60 °F 58 °F 84 °F (1931)
Min Temperature 26 °F 36 °F 9 °F (1962)
Degree Days  
Heating Degree Days 22    
Moisture  
Dew Point 27 °F    
Average Humidity 73    
Maximum Humidity 100    
Minimum Humidity 19    
Precipitation  
Precipitation 0.00 in - - ()
Sea Level Pressure  
Sea Level Pressure 30.36 in    
Wind  
Wind Speed 1 mph (ESE)    
Max Wind Speed 8 mph    
Max Gust Speed -    
Visibility 10 miles    
Events      
Averages and records for this station are not official NWS values.
T = Trace of Precipitation, MM = Missing Value Source: NWS Daily Summary

Daily Weather History Graph

Daily Weather History Graph

Search for Another Location

Airport or City:

Trip Planner

Search our weather history database for the weather conditions in past years. The results will help you decide how hot, cold, wet, or windy it might be!

Date:

Astronomy

Dec. 13, 2012 Rise Set
Actual Time 7:03 AM CST 5:05 PM CST
Civil Twilight 6:36 AM CST 5:33 PM CST
Nautical Twilight 6:05 AM CST 6:03 PM CST
Astronomical Twilight 5:35 AM CST 6:33 PM CST
Moon 7:13 AM CST (12/13) 5:47 PM CST (12/13)
Length of Visible Light 10h 56m
Length of Day
10h 02m
New Moon, 0% of the Moon is Illuminated
Dec 13
New Moon
Dec 19
First Quarter
Dec 28
Full
Jan 4
Last Quarter
Jan 11
New

Hourly Weather History & Observations

Time (CST) Temp. Windchill Dew Point Humidity Pressure Visibility Wind Dir Wind Speed Gust Speed Precip Events Conditions
12:15 AM 28.9 °F - 28.9 °F 100% 30.37 in 10.0 mi Calm Calm - N/A   Clear
12:35 AM 28.8 °F - 28.8 °F 100% 30.37 in 10.0 mi Calm Calm - N/A   Clear
12:55 AM 28.4 °F - 28.4 °F 100% 30.36 in 10.0 mi Calm Calm - N/A   Clear
1:15 AM 28.9 °F - 28.9 °F 100% 30.36 in 10.0 mi Calm Calm - N/A   Clear
1:35 AM 28.4 °F - 28.4 °F 100% 30.37 in 10.0 mi Calm Calm - N/A   Clear
1:55 AM 28.4 °F - 28.4 °F 100% 30.37 in 10.0 mi Calm Calm - N/A   Clear
2:15 AM 28.2 °F - 28.2 °F 100% 30.37 in 10.0 mi Calm Calm - N/A   Clear
2:35 AM 28.4 °F - 28.4 °F 100% 30.37 in 10.0 mi Calm Calm - N/A   Clear
2:55 AM 28.0 °F - 28.0 °F 100% 30.37 in 10.0 mi Calm Calm - N/A   Clear
3:15 AM 27.7 °F - 27.7 °F 100% 30.37 in 10.0 mi Calm Calm - N/A   Clear
3:35 AM 27.7 °F - 27.7 °F 100% 30.37 in 10.0 mi Calm Calm - N/A   Clear
3:55 AM 27.5 °F - 27.5 °F 100% 30.37 in 10.0 mi Calm Calm - N/A   Clear
4:15 AM 27.5 °F - 27.5 °F 100% 30.37 in 10.0 mi Calm Calm - N/A   Clear
4:35 AM 27.0 °F - 27.0 °F 100% 30.37 in 10.0 mi Calm Calm - N/A   Clear
4:55 AM 27.0 °F - 27.0 °F 100% 30.37 in 10.0 mi Calm Calm - N/A   Clear
5:15 AM 27.1 °F - 27.1 °F 100% 30.38 in 10.0 mi Calm Calm - N/A   Clear
5:35 AM 27.0 °F - 27.0 °F 100% 30.38 in 10.0 mi Calm Calm - N/A   Clear
5:55 AM 27.0 °F - 27.0 °F 100% 30.39 in 10.0 mi Calm Calm - N/A   Clear
6:15 AM 26.6 °F - 26.6 °F 100% 30.39 in 10.0 mi Calm Calm - N/A   Clear
6:35 AM 26.4 °F - 26.4 °F 100% 30.40 in 10.0 mi Calm Calm - N/A   Clear
6:55 AM 28.2 °F - 28.2 °F 100% 30.41 in 10.0 mi Calm Calm - N/A   Clear
7:15 AM 27.5 °F - 27.5 °F 100% 30.41 in 10.0 mi Calm Calm - N/A   Clear
7:35 AM 28.0 °F - 28.0 °F 100% 30.41 in 10.0 mi Calm Calm - N/A   Clear
7:55 AM 29.5 °F - 29.5 °F 100% 30.41 in 10.0 mi Calm Calm - N/A   Clear
8:15 AM 32.2 °F - 31.8 °F 99% 30.42 in 10.0 mi Calm Calm - N/A   Clear
8:35 AM 34.3 °F - 31.8 °F 90% 30.41 in 10.0 mi Calm Calm - N/A   Clear
8:55 AM 38.8 °F - 32.0 °F 76% 30.42 in 10.0 mi Calm Calm - N/A   Clear
9:15 AM 41.5 °F 38.6 °F 31.8 °F 68% 30.42 in 10.0 mi East 4.6 mph - N/A   Clear
9:35 AM 43.2 °F 41.5 °F 30.9 °F 62% 30.42 in 10.0 mi East 3.5 mph - N/A   Clear
9:55 AM 46.8 °F - 28.8 °F 50% 30.41 in 10.0 mi East 4.6 mph - N/A   Clear
10:15 AM 49.3 °F - 25.3 °F 39% 30.41 in 10.0 mi East 8.1 mph - N/A   Clear
10:35 AM 50.4 °F - 24.4 °F 36% 30.41 in 10.0 mi ESE 8.1 mph - N/A   Clear
10:55 AM 51.6 °F - 25.5 °F 36% 30.40 in 10.0 mi ESE 6.9 mph - N/A   Clear
11:15 AM 53.4 °F - 23.2 °F 31% 30.40 in 10.0 mi East 4.6 mph - N/A   Clear
11:35 AM 54.7 °F - 21.4 °F 27% 30.39 in 10.0 mi Calm Calm - N/A   Clear
11:55 AM 55.6 °F - 19.9 °F 25% 30.38 in 10.0 mi SE 5.8 mph - N/A   Clear
12:15 PM 56.3 °F - 19.6 °F 24% 30.37 in 10.0 mi East 3.5 mph - N/A   Clear
12:35 PM 57.4 °F - 19.9 °F 23% 30.36 in 10.0 mi East 3.5 mph - N/A   Clear
12:55 PM 57.4 °F - 20.7 °F 24% 30.35 in 10.0 mi South 3.5 mph - N/A   Clear
1:15 PM 59.0 °F - 18.3 °F 21% 30.34 in 10.0 mi SSW 3.5 mph - N/A   Clear
1:35 PM 59.0 °F - 18.1 °F 20% 30.34 in 10.0 mi SSE 4.6 mph - N/A   Clear
1:55 PM 59.2 °F - 18.9 °F 21% 30.33 in 10.0 mi Calm Calm - N/A   Clear
2:15 PM 59.7 °F - 18.1 °F 20% 30.32 in 10.0 mi Calm Calm - N/A   Clear
2:35 PM 59.9 °F - 18.3 °F 20% 30.32 in 10.0 mi Calm Calm - N/A   Clear
2:55 PM 59.9 °F - 19.4 °F 21% 30.33 in 10.0 mi Calm Calm - N/A   Clear
3:15 PM 60.4 °F - 19.4 °F 20% 30.33 in 10.0 mi South 3.5 mph - N/A   Clear
3:35 PM 60.1 °F - 19.6 °F 21% 30.32 in 10.0 mi Calm Calm - N/A   Clear
3:55 PM 59.7 °F - 16.5 °F 19% 30.32 in 10.0 mi Calm Calm - N/A   Clear
4:35 PM 57.4 °F - 25.7 °F 30% 30.29 in 10.0 mi Calm Calm - N/A   Clear
5:15 PM 47.1 °F - 32.0 °F 56% 30.29 in 10.0 mi Calm Calm - N/A   Clear
6:15 PM 41.2 °F - 32.9 °F 72% 30.30 in 10.0 mi Calm Calm - N/A   Clear
6:55 PM 38.5 °F - 32.2 °F 78% 30.31 in 10.0 mi Calm Calm - N/A   Clear
7:15 PM 37.8 °F - 32.2 °F 80% 30.32 in 10.0 mi Calm Calm - N/A   Clear
7:55 PM 36.3 °F - 32.9 °F 87% 30.31 in 10.0 mi Calm Calm - N/A   Clear
8:15 PM 34.7 °F - 32.0 °F 90% 30.31 in 10.0 mi Calm Calm - N/A   Clear
8:35 PM 34.0 °F - 32.0 °F 92% 30.32 in 10.0 mi Calm Calm - N/A   Clear
8:55 PM 33.1 °F - 31.6 °F 94% 30.32 in 10.0 mi Calm Calm - N/A   Clear
9:15 PM 33.4 °F - 31.8 °F 94% 30.31 in 10.0 mi Calm Calm - N/A   Clear
9:35 PM 32.2 °F - 31.6 °F 98% 30.32 in 10.0 mi Calm Calm - N/A   Clear
9:55 PM 32.7 °F - 32.2 °F 98% 30.33 in 10.0 mi Calm Calm - N/A   Clear
10:15 PM 32.2 °F - 32.2 °F 100% 30.32 in 10.0 mi Calm Calm - N/A   Clear
10:35 PM 31.8 °F - 30.9 °F 96% 30.32 in 10.0 mi Calm Calm - N/A   Clear
10:55 PM 32.0 °F - 32.0 °F 100% 30.32 in 10.0 mi Calm Calm - N/A   Clear
11:15 PM 32.0 °F - 32.0 °F 100% 30.32 in 10.0 mi Calm Calm - N/A   Clear
11:55 PM 32.0 °F - 31.6 °F 99% 30.31 in 10.0 mi Calm Calm - N/A   Clear